Flag for Germany Weather past 2 weeks in Gross-Gerau, Hesse, Germany

Now
55 °F

Partly sunny.


Feels Like: 55 °F
Forecast: 46 / 56 °F
Wind: 3 mph from Southwest

Location: Frankfurt-M-Flughafen Airport

Current Time: Oct 24, 2014 at 5:28:21 PM

Latest Report: Oct 24, 2014 at 4:50 PM


Visibility: N/A

Pressure: 30.12 "Hg

Humidity: 72%

Dew point: 46 °F

Location of Gross-GerauLocation

Historic Weather in Gross-Gerau — Graph

°F

Gross-Gerau temperature yesterday

Maximum temperature yesterday: 55 °F (at 4:20 PM)
Minimum temperature yesterday: 43 °F (at 11:50 PM)
Average temperature yesterday: 49 °F

Past Weeks' High & Low Weather Summary

 TemperatureHumidityPressure
High72 °F (Oct 19, 3:50 PM)100% (Oct 9, 6:20 PM)30.27 "Hg (Oct 9, 6:20 PM)
Low39 °F (Oct 24, 2:20 AM)60% (Oct 20, 1:50 PM)29.56 "Hg (Oct 21, 5:50 PM)
Average56 °F90%29.95 "Hg
* Reported Oct 9 4:20 PM — Oct 24 4:20 PM, Gross-Gerau, Weather by CustomWeather, © 2014

Note: Actual official high and low records may vary slightly from our data, if they occured in-between our weather recording intervals... More about our weather records

Advertising

Gross-Gerau weather history for previous 24 hours

 ConditionsComfort  
Time TempWeatherWind HumidityBarometerVisibility
4:20 PM
Oct 24
55 °FPartly sunny.1 mph67%30.12 "HgN/A
3:50 PM55 °FPartly sunny.2 mph67%30.15 "HgN/A
3:20 PM55 °FScattered clouds.3 mph67%30.15 "HgN/A
2:50 PM54 °FScattered clouds.3 mph72%30.15 "HgN/A
2:20 PM54 °FPassing clouds.6 mph72%30.18 "HgN/A
1:50 PM54 °FPassing clouds.2 mph77%30.18 "HgN/A
1:20 PM52 °FPassing clouds.3 mph82%30.21 "HgN/A
12:50 PM50 °FScattered clouds.1 mph88%30.21 "Hg4 mi
12:20 PM48 °FScattered clouds.5 mph94%30.21 "Hg4 mi
11:50 AM46 °FSnow. Fog.No wind93%30.21 "Hg3 mi
11:20 AM45 °FSnow. Cloudy.3 mph100%30.21 "Hg2 mi
10:50 AM43 °FSnow. Cloudy.3 mph100%30.21 "Hg2 mi
10:20 AM43 °FFog.2 mph100%30.24 "Hg0 mi
9:50 AM43 °FFog.2 mph100%30.24 "Hg0 mi
9:20 AM43 °FFog.2 mph100%30.24 "Hg0 mi
8:50 AM43 °FFog.2 mph100%30.24 "Hg0 mi
8:20 AM43 °FFog.No wind100%30.21 "Hg0 mi
7:50 AM43 °FFog.2 mph100%30.21 "Hg0 mi
7:20 AM43 °FFog.2 mph100%30.21 "Hg0 mi
6:50 AM41 °FFog.No wind100%30.21 "Hg0 mi
6:20 AM41 °FFog.2 mph100%30.21 "Hg0 mi
5:50 AM41 °FQuite cool.No wind100%30.21 "Hg0 mi
5:20 AM41 °FFog.No wind100%30.21 "Hg0 mi
4:50 AM41 °FFog.No wind100%30.21 "Hg1 mi
4:20 AM39 °FSnow. Passing clouds.No wind100%30.24 "Hg4 mi
3:50 AM39 °FSnow. Fog.No wind93%30.24 "Hg5 mi
3:20 AM39 °FSnow. Fog.No wind100%30.24 "Hg5 mi
2:50 AM39 °FSnow. Fog.No wind100%30.24 "Hg5 mi
2:20 AM39 °FSnow. Fog.No wind100%30.24 "Hg5 mi
1:50 AM41 °FFog.No wind93%30.24 "Hg5 mi
1:20 AM41 °FFog.No wind100%30.24 "Hg6 mi
12:50 AM41 °FFog.No wind100%30.24 "HgN/A
12:20 AM43 °FFog.No wind93%30.24 "HgN/A
11:50 PM
Oct 23
43 °FFog.2 mph93%30.24 "HgN/A
11:20 PM45 °FClear.3 mph93%30.24 "Hg10 mi
10:50 PM45 °FPassing clouds.No wind93%30.24 "HgN/A
10:20 PM46 °FPassing clouds.3 mph93%30.24 "HgN/A
9:50 PM45 °FPassing clouds.No wind100%30.24 "HgN/A
9:20 PM46 °FPassing clouds.No wind93%30.24 "HgN/A
8:50 PM46 °FPassing clouds.No wind93%30.24 "HgN/A
8:20 PM46 °FFog.1 mph93%30.24 "HgN/A
7:50 PM46 °FFog.2 mph93%30.24 "HgN/A
7:20 PM48 °FPartly cloudy.5 mph94%30.24 "HgN/A
6:50 PM50 °FBroken clouds.6 mph88%30.24 "HgN/A
6:20 PM52 °FBroken clouds.6 mph82%30.21 "HgN/A
5:50 PM52 °FBroken clouds.7 mph82%30.21 "HgN/A
5:20 PM54 °FBroken clouds.6 mph77%30.24 "HgN/A
Weather by CustomWeather, © 2014

See weather overviewHow to use our weather pages